Location: Sabana Grande
(18.0777°N, 66.9605°W)
Time: 20:14:11
(UTC-04:00)

ARIANE 6 FM1 Upper Stage - Pass Details

Date: 25 September 2024
Orbit: 563 x 595 km, 62.0° (Epoch: 14 October)

Event Time Altitude Azimuth Distance (km) Brightness Sun altitude
Exits shadow 05:35:38 12° 242° (WSW) 1,802 4.7 -10.7°
Drops below altitude 10° 05:36:48 10° 226° (SW) 1,916 4.9 -10.5°
Sets 05:40:25 0° 195° (SSW) 2,809 6.1 -9.6°
